owner,sensor,date,latitude,longitude,vertical_datum,wind_speed,wind_to_direction,wind_speed_of_gust,qcFlag 
COMPS,ioos:station:USF.COMPS:SHP:1,2017-10-01T00:00:00Z,30.0600,-84.2910,10.0,2.66,65.99,6.17,'1111122,1111122,1111122' 
COMPS,ioos:station:USF.COMPS:SHP:1,2017-10-01T00:06:00Z,30.0600,-84.2910,10.0,2.47,65.8,5.58,'1111122,1111122,1111122' 
COMPS,ioos:station:USF.COMPS:SHP:1,2017-10-01T00:12:00Z,30.0600,-84.2910,10.0,2.17,71.43,5.39,'1111122,1111122,1111122' 
COMPS,ioos:station:USF.COMPS:SHP:1,2017-10-01T00:18:00Z,30.0600,-84.2910,10.0,2.52,73.23,4.99,'1111122,1111122,1111122' 
COMPS,ioos:station:USF.COMPS:SHP:1,2017-10-01T00:24:00Z,30.0600,-84.2910,10.0,2.06,63.52,5.39,'1111122,1111122,1111122' 
COMPS,ioos:station:USF.COMPS:SHP:1,2017-10-01T00:30:00Z,30.0600,-84.2910,10.0,2.0,62.5,4.7,'1111122,1111122,1111122' 
COMPS,ioos:station:USF.COMPS:SHP:1,2017-10-01T00:36:00Z,30.0600,-84.2910,10.0,2.49,59.79,4.8,'1111122,1111122,1111122' 
COMPS,ioos:station:USF.COMPS:SHP:1,2017-10-01T00:42:00Z,30.0600,-84.2910,10.0,2.02,77.63,4.9,'1111122,1111122,1111122' 
COMPS,ioos:station:USF.COMPS:SHP:1,2017-10-01T00:48:00Z,30.0600,-84.2910,10.0,1.81,59.6,6.85,'1111122,1111122,1111122' 
COMPS,ioos:station:USF.COMPS:SHP:1,2017-10-01T00:54:00Z,30.0600,-84.2910,10.0,2.62,51.76,5.39,'1111122,1111122,1111122' 
COMPS,ioos:station:USF.COMPS:SHP:1,2017-10-01T01:00:00Z,30.0600,-84.2910,10.0,2.72,54.3,5.48,'1111122,1111122,1111122' 
COMPS,ioos:station:USF.COMPS:SHP:1,2017-10-01T01:06:00Z,30.0600,-84.2910,10.0,2.9,66.65,5.78,'1111122,1111122,1111122' 
COMPS,ioos:station:USF.COMPS:SHP:1,2017-10-01T01:12:00Z,30.0600,-84.2910,10.0,2.62,67.75,6.37,'1111122,1111122,1111122' 
COMPS,ioos:station:USF.COMPS:SHP:1,2017-10-01T01:18:00Z,30.0600,-84.2910,10.0,2.83,69.1,6.37,'1111122,1111122,1111122' 
COMPS,ioos:station:USF.COMPS:SHP:1,2017-10-01T01:24:00Z,30.0600,-84.2910,10.0,2.66,74.99,6.37,'1111122,1111122,1111122' 
COMPS,ioos:station:USF.COMPS:SHP:1,2017-10-01T01:30:00Z,30.0600,-84.2910,10.0,3.02,60.36,5.48,'1111122,1111122,1111122' 
COMPS,ioos:station:USF.COMPS:SHP:1,2017-10-01T01:36:00Z,30.0600,-84.2910,10.0,3.03,74.43,7.05,'1111122,1111122,1111122' 
COMPS,ioos:station:USF.COMPS:SHP:1,2017-10-01T01:42:00Z,30.0600,-84.2910,10.0,2.7,62.95,5.78,'1111122,1111122,1111122' 
COMPS,ioos:station:USF.COMPS:SHP:1,2017-10-01T01:48:00Z,30.0600,-84.2910,10.0,1.7,58.92,5.58,'1111122,1111122,1111122' 
COMPS,ioos:station:USF.COMPS:SHP:1,2017-10-01T01:54:00Z,30.0600,-84.2910,10.0,3.22,56.33,7.15,'1111122,1111122,1111122' 
COMPS,ioos:station:USF.COMPS:SHP:1,2017-10-01T02:00:00Z,30.0600,-84.2910,10.0,2.47,54.56,6.56,'1111122,1111122,1111122' 
COMPS,ioos:station:USF.COMPS:SHP:1,2017-10-01T02:06:00Z,30.0600,-84.2910,10.0,3.38,62.6,6.27,'1111122,1111122,1111122' 
COMPS,ioos:station:USF.COMPS:SHP:1,2017-10-01T02:12:00Z,30.0600,-84.2910,10.0,2.44,55.78,5.19,'1111122,1111122,1111122' 
COMPS,ioos:station:USF.COMPS:SHP:1,2017-10-01T02:18:00Z,30.0600,-84.2910,10.0,2.45,58.86,6.17,'1111122,1111122,1111122' 
COMPS,ioos:station:USF.COMPS:SHP:1,2017-10-01T02:24:00Z,30.0600,-84.2910,10.0,2.75,49.55,4.7,'1111122,1111122,1111122' 
COMPS,ioos:station:USF.COMPS:SHP:1,2017-10-01T02:30:00Z,30.0600,-84.2910,10.0,2.22,46.73,4.9,'1111122,1111122,1111122' 
COMPS,ioos:station:USF.COMPS:SHP:1,2017-10-01T02:36:00Z,30.0600,-84.2910,10.0,2.37,59.88,5.58,'1111122,1111122,1111122' 
COMPS,ioos:station:USF.COMPS:SHP:1,2017-10-01T02:42:00Z,30.0600,-84.2910,10.0,2.35,58.61,5.19,'1111122,1111122,1111122' 
COMPS,ioos:station:USF.COMPS:SHP:1,2017-10-01T02:48:00Z,30.0600,-84.2910,10.0,2.56,47.98,5.48,'1111122,1111122,1111122' 
COMPS,ioos:station:USF.COMPS:SHP:1,2017-10-01T02:54:00Z,30.0600,-84.2910,10.0,2.36,64.22,5.09,'1111122,1111122,1111122' 
COMPS,ioos:station:USF.COMPS:SHP:1,2017-10-01T03:00:00Z,30.0600,-84.2910,10.0,2.29,55.31,4.8,'1111122,1111122,1111122' 
COMPS,ioos:station:USF.COMPS:SHP:1,2017-10-01T03:06:00Z,30.0600,-84.2910,10.0,2.79,51.52,6.66,'1111122,1111122,1111122' 
COMPS,ioos:station:USF.COMPS:SHP:1,2017-10-01T03:12:00Z,30.0600,-84.2910,10.0,1.93,48.35,4.41,'1111122,1111122,1111122' 
COMPS,ioos:station:USF.COMPS:SHP:1,2017-10-01T03:18:00Z,30.0600,-84.2910,10.0,2.03,45.33,5.19,'1111122,1111122,1111122' 
COMPS,ioos:station:USF.COMPS:SHP:1,2017-10-01T03:24:00Z,30.0600,-84.2910,10.0,2.01,48.71,4.5,'1111122,1111122,1111122' 
COMPS,ioos:station:USF.COMPS:SHP:1,2017-10-01T03:30:00Z,30.0600,-84.2910,10.0,2.12,53.93,4.31,'1111122,1111122,1111122' 
COMPS,ioos:station:USF.COMPS:SHP:1,2017-10-01T03:36:00Z,30.0600,-84.2910,10.0,2.32,46.7,5.78,'1111122,1111122,1111122' 
COMPS,ioos:station:USF.COMPS:SHP:1,2017-10-01T03:42:00Z,30.0600,-84.2910,10.0,2.48,43.86,6.17,'1111122,1111122,1111122' 
COMPS,ioos:station:USF.COMPS:SHP:1,2017-10-01T03:48:00Z,30.0600,-84.2910,10.0,3.07,48.59,6.66,'1111122,1111122,1111122' 
COMPS,ioos:station:USF.COMPS:SHP:1,2017-10-01T03:54:00Z,30.0600,-84.2910,10.0,2.71,44.77,5.39,'1111122,1111122,1111122' 
COMPS,ioos:station:USF.COMPS:SHP:1,2017-10-01T04:00:00Z,30.0600,-84.2910,10.0,3.07,47.61,5.68,'1111122,1111122,1111122' 
COMPS,ioos:station:USF.COMPS:SHP:1,2017-10-01T04:06:00Z,30.0600,-84.2910,10.0,2.95,50.94,6.76,'1111122,1111122,1111122' 
COMPS,ioos:station:USF.COMPS:SHP:1,2017-10-01T04:12:00Z,30.0600,-84.2910,10.0,3.14,47.15,7.54,'1111122,1111122,1111122' 
COMPS,ioos:station:USF.COMPS:SHP:1,2017-10-01T04:18:00Z,30.0600,-84.2910,10.0,2.86,62.71,7.15,'1111122,1111122,1111122' 
COMPS,ioos:station:USF.COMPS:SHP:1,2017-10-01T04:24:00Z,30.0600,-84.2910,10.0,3.2,63.9,8.52,'1111122,1111122,1111122' 
COMPS,ioos:station:USF.COMPS:SHP:1,2017-10-01T04:30:00Z,30.0600,-84.2910,10.0,3.13,53.23,6.27,'1111122,1111122,1111122' 
COMPS,ioos:station:USF.COMPS:SHP:1,2017-10-01T04:36:00Z,30.0600,-84.2910,10.0,2.58,54.7,6.76,'1111122,1111122,1111122' 
COMPS,ioos:station:USF.COMPS:SHP:1,2017-10-01T04:42:00Z,30.0600,-84.2910,10.0,2.77,46.24,6.46,'1111122,1111122,1111122' 
COMPS,ioos:station:USF.COMPS:SHP:1,2017-10-01T04:48:00Z,30.0600,-84.2910,10.0,3.63,48.45,6.95,'1111122,1111122,1111122' 
COMPS,ioos:station:USF.COMPS:SHP:1,2017-10-01T04:54:00Z,30.0600,-84.2910,10.0,3.25,51.12,6.85,'1111122,1111122,1111122' 
COMPS,ioos:station:USF.COMPS:SHP:1,2017-10-01T05:00:00Z,30.0600,-84.2910,10.0,4.21,52.4,7.05,'1111122,1111122,1111122' 
COMPS,ioos:station:USF.COMPS:SHP:1,2017-10-01T05:06:00Z,30.0600,-84.2910,10.0,2.65,54.64,5.68,'1111122,1111122,1111122' 
COMPS,ioos:station:USF.COMPS:SHP:1,2017-10-01T05:12:00Z,30.0600,-84.2910,10.0,4.39,50.24,7.74,'1111122,1111122,1111122' 
COMPS,ioos:station:USF.COMPS:SHP:1,2017-10-01T05:18:00Z,30.0600,-84.2910,10.0,3.43,42.26,6.46,'1111122,1111122,1111122' 
COMPS,ioos:station:USF.COMPS:SHP:1,2017-10-01T05:24:00Z,30.0600,-84.2910,10.0,3.59,51.13,6.27,'1111122,1111122,1111122' 
COMPS,ioos:station:USF.COMPS:SHP:1,2017-10-01T05:30:00Z,30.0600,-84.2910,10.0,2.91,46.84,7.05,'1111122,1111122,1111122' 
COMPS,ioos:station:USF.COMPS:SHP:1,2017-10-01T05:36:00Z,30.0600,-84.2910,10.0,3.0,51.34,6.66,'1111122,1111122,1111122' 
COMPS,ioos:station:USF.COMPS:SHP:1,2017-10-01T05:42:00Z,30.0600,-84.2910,10.0,3.65,57.68,7.64,'1111122,1111122,1111122' 
COMPS,ioos:station:USF.COMPS:SHP:1,2017-10-01T05:48:00Z,30.0600,-84.2910,10.0,3.3,47.6,5.48,'1111122,1111122,1111122' 
COMPS,ioos:station:USF.COMPS:SHP:1,2017-10-01T05:54:00Z,30.0600,-84.2910,10.0,3.78,38.66,7.54,'1111122,1111122,1111122' 
COMPS,ioos:station:USF.COMPS:SHP:1,2017-10-01T06:00:00Z,30.0600,-84.2910,10.0,3.89,35.77,8.13,'1111122,1111122,1111122' 
COMPS,ioos:station:USF.COMPS:SHP:1,2017-10-01T06:06:00Z,30.0600,-84.2910,10.0,4.36,44.74,8.33,'1111122,1111122,1111122' 
COMPS,ioos:station:USF.COMPS:SHP:1,2017-10-01T06:12:00Z,30.0600,-84.2910,10.0,4.12,41.46,8.13,'1111122,1111122,1111122' 
COMPS,ioos:station:USF.COMPS:SHP:1,2017-10-01T06:18:00Z,30.0600,-84.2910,10.0,3.66,47.02,9.3,'1111122,1111122,1111122' 
COMPS,ioos:station:USF.COMPS:SHP:1,2017-10-01T06:24:00Z,30.0600,-84.2910,10.0,4.82,39.9,8.03,'1111122,1111122,1111122' 
COMPS,ioos:station:USF.COMPS:SHP:1,2017-10-01T06:30:00Z,30.0600,-84.2910,10.0,4.56,42.53,9.21,'1111122,1111122,1111122' 
COMPS,ioos:station:USF.COMPS:SHP:1,2017-10-01T06:36:00Z,30.0600,-84.2910,10.0,4.06,35.99,7.64,'1111122,1111122,1111122' 
COMPS,ioos:station:USF.COMPS:SHP:1,2017-10-01T06:42:00Z,30.0600,-84.2910,10.0,3.6,39.8,7.25,'1111122,1111122,1111122' 
COMPS,ioos:station:USF.COMPS:SHP:1,2017-10-01T06:48:00Z,30.0600,-84.2910,10.0,4.31,38.89,7.15,'1111122,1111122,1111122' 
COMPS,ioos:station:USF.COMPS:SHP:1,2017-10-01T06:54:00Z,30.0600,-84.2910,10.0,4.13,35.2,7.15,'1111122,1111122,1111122' 
COMPS,ioos:station:USF.COMPS:SHP:1,2017-10-01T07:00:00Z,30.0600,-84.2910,10.0,3.78,41.39,6.56,'1111122,1111122,1111122' 
COMPS,ioos:station:USF.COMPS:SHP:1,2017-10-01T07:06:00Z,30.0600,-84.2910,10.0,3.73,38.25,8.33,'1111122,1111122,1111122' 
COMPS,ioos:station:USF.COMPS:SHP:1,2017-10-01T07:12:00Z,30.0600,-84.2910,10.0,3.86,41.23,6.27,'1111122,1111122,1111122' 
COMPS,ioos:station:USF.COMPS:SHP:1,2017-10-01T07:18:00Z,30.0600,-84.2910,10.0,3.68,33.79,7.05,'1111122,1111122,1111122' 
COMPS,ioos:station:USF.COMPS:SHP:1,2017-10-01T07:24:00Z,30.0600,-84.2910,10.0,3.71,43.11,7.44,'1111122,1111122,1111122' 
COMPS,ioos:station:USF.COMPS:SHP:1,2017-10-01T07:30:00Z,30.0600,-84.2910,10.0,3.77,38.79,6.95,'1111122,1111122,1111122' 
COMPS,ioos:station:USF.COMPS:SHP:1,2017-10-01T07:36:00Z,30.0600,-84.2910,10.0,3.25,39.7,5.48,'1111122,1111122,1111122' 
COMPS,ioos:station:USF.COMPS:SHP:1,2017-10-01T07:42:00Z,30.0600,-84.2910,10.0,3.95,41.37,8.03,'1111122,1111122,1111122' 
COMPS,ioos:station:USF.COMPS:SHP:1,2017-10-01T07:48:00Z,30.0600,-84.2910,10.0,3.56,36.43,8.33,'1111122,1111122,1111122' 
COMPS,ioos:station:USF.COMPS:SHP:1,2017-10-01T07:54:00Z,30.0600,-84.2910,10.0,4.06,35.89,6.85,'1111122,1111122,1111122' 
COMPS,ioos:station:USF.COMPS:SHP:1,2017-10-01T08:00:00Z,30.0600,-84.2910,10.0,4.29,33.47,7.25,'1111122,1111122,1111122' 
COMPS,ioos:station:USF.COMPS:SHP:1,2017-10-01T08:06:00Z,30.0600,-84.2910,10.0,3.51,38.84,7.15,'1111122,1111122,1111122' 
COMPS,ioos:station:USF.COMPS:SHP:1,2017-10-01T08:12:00Z,30.0600,-84.2910,10.0,4.07,42.33,7.44,'1111122,1111122,1111122' 
COMPS,ioos:station:USF.COMPS:SHP:1,2017-10-01T08:18:00Z,30.0600,-84.2910,10.0,3.83,33.21,7.64,'1111122,1111122,1111122' 
COMPS,ioos:station:USF.COMPS:SHP:1,2017-10-01T08:24:00Z,30.0600,-84.2910,10.0,4.23,42.31,8.91,'1111122,1111122,1111122' 
COMPS,ioos:station:USF.COMPS:SHP:1,2017-10-01T08:30:00Z,30.0600,-84.2910,10.0,4.27,38.12,7.44,'1111122,1111122,1111122' 
COMPS,ioos:station:USF.COMPS:SHP:1,2017-10-01T08:36:00Z,30.0600,-84.2910,10.0,4.32,32.17,6.76,'1111122,1111122,1111122' 
COMPS,ioos:station:USF.COMPS:SHP:1,2017-10-01T08:42:00Z,30.0600,-84.2910,10.0,4.45,39.09,7.64,'1111122,1111122,1111122' 
COMPS,ioos:station:USF.COMPS:SHP:1,2017-10-01T08:48:00Z,30.0600,-84.2910,10.0,3.5,40.55,7.54,'1111122,1111122,1111122' 
COMPS,ioos:station:USF.COMPS:SHP:1,2017-10-01T08:54:00Z,30.0600,-84.2910,10.0,4.9,38.37,8.91,'1111122,1111122,1111122' 
COMPS,ioos:station:USF.COMPS:SHP:1,2017-10-01T09:00:00Z,30.0600,-84.2910,10.0,4.04,41.94,7.35,'1111122,1111122,1111122' 
COMPS,ioos:station:USF.COMPS:SHP:1,2017-10-01T09:06:00Z,30.0600,-84.2910,10.0,3.85,39.28,6.76,'1111122,1111122,1111122' 
COMPS,ioos:station:USF.COMPS:SHP:1,2017-10-01T09:12:00Z,30.0600,-84.2910,10.0,4.0,44.96,8.23,'1111122,1111122,1111122' 
COMPS,ioos:station:USF.COMPS:SHP:1,2017-10-01T09:18:00Z,30.0600,-84.2910,10.0,3.97,42.99,8.72,'1111122,1111122,1111122' 
COMPS,ioos:station:USF.COMPS:SHP:1,2017-10-01T09:24:00Z,30.0600,-84.2910,10.0,4.18,42.52,8.42,'1111122,1111122,1111122' 
COMPS,ioos:station:USF.COMPS:SHP:1,2017-10-01T09:30:00Z,30.0600,-84.2910,10.0,3.73,37.9,6.76,'1111122,1111122,1111122' 
COMPS,ioos:station:USF.COMPS:SHP:1,2017-10-01T09:36:00Z,30.0600,-84.2910,10.0,4.27,34.03,7.15,'1111122,1111122,1111122' 
COMPS,ioos:station:USF.COMPS:SHP:1,2017-10-01T09:42:00Z,30.0600,-84.2910,10.0,3.7,37.27,8.62,'1111122,1111122,1111122' 
COMPS,ioos:station:USF.COMPS:SHP:1,2017-10-01T09:48:00Z,30.0600,-84.2910,10.0,3.26,43.46,8.62,'1111122,1111122,1111122' 
COMPS,ioos:station:USF.COMPS:SHP:1,2017-10-01T09:54:00Z,30.0600,-84.2910,10.0,3.75,46.77,8.03,'1111122,1111122,1111122' 
COMPS,ioos:station:USF.COMPS:SHP:1,2017-10-01T10:00:00Z,30.0600,-84.2910,10.0,4.18,41.57,7.74,'1111122,1111122,1111122' 
COMPS,ioos:station:USF.COMPS:SHP:1,2017-10-01T10:06:00Z,30.0600,-84.2910,10.0,4.02,44.62,7.83,'1111122,1111122,1111122' 
COMPS,ioos:station:USF.COMPS:SHP:1,2017-10-01T10:12:00Z,30.0600,-84.2910,10.0,3.83,51.85,8.03,'1111122,1111122,1111122' 
COMPS,ioos:station:USF.COMPS:SHP:1,2017-10-01T10:18:00Z,30.0600,-84.2910,10.0,4.05,47.73,7.93,'1111122,1111122,1111122' 
COMPS,ioos:station:USF.COMPS:SHP:1,2017-10-01T10:24:00Z,30.0600,-84.2910,10.0,3.63,41.21,8.72,'1111122,1111122,1111122' 
COMPS,ioos:station:USF.COMPS:SHP:1,2017-10-01T10:30:00Z,30.0600,-84.2910,10.0,3.42,52.19,8.62,'1111122,1111122,1111122' 
COMPS,ioos:station:USF.COMPS:SHP:1,2017-10-01T10:36:00Z,30.0600,-84.2910,10.0,3.33,49.2,7.74,'1111122,1111122,1111122' 
COMPS,ioos:station:USF.COMPS:SHP:1,2017-10-01T10:42:00Z,30.0600,-84.2910,10.0,2.55,41.51,6.27,'1111122,1111122,1111122' 
COMPS,ioos:station:USF.COMPS:SHP:1,2017-10-01T10:48:00Z,30.0600,-84.2910,10.0,2.95,58.76,6.46,'1111122,1111122,1111122' 
COMPS,ioos:station:USF.COMPS:SHP:1,2017-10-01T10:54:00Z,30.0600,-84.2910,10.0,3.09,42.54,6.07,'1111122,1111122,1111122' 
COMPS,ioos:station:USF.COMPS:SHP:1,2017-10-01T11:00:00Z,30.0600,-84.2910,10.0,3.36,53.09,6.66,'1111122,1111122,1111122' 
COMPS,ioos:station:USF.COMPS:SHP:1,2017-10-01T11:06:00Z,30.0600,-84.2910,10.0,3.26,55.73,6.07,'1111122,1111122,1111122' 
COMPS,ioos:station:USF.COMPS:SHP:1,2017-10-01T11:12:00Z,30.0600,-84.2910,10.0,3.4,49.01,6.46,'1111122,1111122,1111122' 
COMPS,ioos:station:USF.COMPS:SHP:1,2017-10-01T11:18:00Z,30.0600,-84.2910,10.0,3.68,38.84,8.03,'1111122,1111122,1111122' 
COMPS,ioos:station:USF.COMPS:SHP:1,2017-10-01T11:24:00Z,30.0600,-84.2910,10.0,4.23,47.19,7.15,'1111122,1111122,1111122' 
COMPS,ioos:station:USF.COMPS:SHP:1,2017-10-01T11:30:00Z,30.0600,-84.2910,10.0,3.87,47.43,7.83,'1111122,1111122,1111122' 
COMPS,ioos:station:USF.COMPS:SHP:1,2017-10-01T11:36:00Z,30.0600,-84.2910,10.0,4.39,43.09,8.52,'1111122,1111122,1111122' 
COMPS,ioos:station:USF.COMPS:SHP:1,2017-10-01T11:42:00Z,30.0600,-84.2910,10.0,4.16,41.96,8.23,'1111122,1111122,1111122' 
COMPS,ioos:station:USF.COMPS:SHP:1,2017-10-01T11:48:00Z,30.0600,-84.2910,10.0,4.17,45.78,7.25,'1111122,1111122,1111122' 
COMPS,ioos:station:USF.COMPS:SHP:1,2017-10-01T11:54:00Z,30.0600,-84.2910,10.0,3.6,44.62,6.17,'1111122,1111122,1111122' 
COMPS,ioos:station:USF.COMPS:SHP:1,2017-10-01T12:00:00Z,30.0600,-84.2910,10.0,3.74,42.26,7.64,'1111122,1111122,1111122' 
COMPS,ioos:station:USF.COMPS:SHP:1,2017-10-01T12:06:00Z,30.0600,-84.2910,10.0,4.03,43.91,7.93,'1111122,1111122,1111122' 
COMPS,ioos:station:USF.COMPS:SHP:1,2017-10-01T12:12:00Z,30.0600,-84.2910,10.0,4.15,57.78,7.25,'1111122,1111122,1111122' 
COMPS,ioos:station:USF.COMPS:SHP:1,2017-10-01T12:18:00Z,30.0600,-84.2910,10.0,3.63,55.52,6.17,'1111122,1111122,1111122' 
COMPS,ioos:station:USF.COMPS:SHP:1,2017-10-01T12:24:00Z,30.0600,-84.2910,10.0,3.45,50.75,7.15,'1111122,1111122,1111122' 
COMPS,ioos:station:USF.COMPS:SHP:1,2017-10-01T12:30:00Z,30.0600,-84.2910,10.0,3.37,50.9,6.27,'1111122,1111122,1111122' 
COMPS,ioos:station:USF.COMPS:SHP:1,2017-10-01T12:36:00Z,30.0600,-84.2910,10.0,3.02,44.26,6.46,'1111122,1111122,1111122' 
COMPS,ioos:station:USF.COMPS:SHP:1,2017-10-01T12:42:00Z,30.0600,-84.2910,10.0,3.73,50.43,6.27,'1111122,1111122,1111122' 
COMPS,ioos:station:USF.COMPS:SHP:1,2017-10-01T12:48:00Z,30.0600,-84.2910,10.0,4.35,41.77,8.23,'1111122,1111122,1111122' 
COMPS,ioos:station:USF.COMPS:SHP:1,2017-10-01T12:54:00Z,30.0600,-84.2910,10.0,3.79,47.2,7.64,'1111122,1111122,1111122' 
COMPS,ioos:station:USF.COMPS:SHP:1,2017-10-01T13:00:00Z,30.0600,-84.2910,10.0,4.05,45.89,7.25,'1111122,1111122,1111122' 
COMPS,ioos:station:USF.COMPS:SHP:1,2017-10-01T13:06:00Z,30.0600,-84.2910,10.0,3.69,46.23,6.85,'1111122,1111122,1111122' 
COMPS,ioos:station:USF.COMPS:SHP:1,2017-10-01T13:12:00Z,30.0600,-84.2910,10.0,4.56,44.64,7.83,'1111122,1111122,1111122' 
COMPS,ioos:station:USF.COMPS:SHP:1,2017-10-01T13:18:00Z,30.0600,-84.2910,10.0,4.47,51.97,11.66,'1111122,1111122,1111122' 
COMPS,ioos:station:USF.COMPS:SHP:1,2017-10-01T13:24:00Z,30.0600,-84.2910,10.0,3.59,41.26,9.7,'1111122,1111122,1111122' 
COMPS,ioos:station:USF.COMPS:SHP:1,2017-10-01T13:30:00Z,30.0600,-84.2910,10.0,2.97,42.75,6.85,'1111122,1111122,1111122' 
COMPS,ioos:station:USF.COMPS:SHP:1,2017-10-01T13:36:00Z,30.0600,-84.2910,10.0,4.18,41.09,7.35,'1111122,1111122,1111122' 
COMPS,ioos:station:USF.COMPS:SHP:1,2017-10-01T13:42:00Z,30.0600,-84.2910,10.0,3.9,42.73,10.87,'1111122,1111122,1111122' 
COMPS,ioos:station:USF.COMPS:SHP:1,2017-10-01T13:48:00Z,30.0600,-84.2910,10.0,4.07,39.7,7.83,'1111122,1111122,1111122' 
COMPS,ioos:station:USF.COMPS:SHP:1,2017-10-01T13:54:00Z,30.0600,-84.2910,10.0,3.96,45.25,8.91,'1111122,1111122,1111122' 
COMPS,ioos:station:USF.COMPS:SHP:1,2017-10-01T14:00:00Z,30.0600,-84.2910,10.0,4.19,41.44,8.82,'1111122,1111122,1111122' 
COMPS,ioos:station:USF.COMPS:SHP:1,2017-10-01T14:06:00Z,30.0600,-84.2910,10.0,3.96,44.44,7.54,'1111122,1111122,1111122' 
COMPS,ioos:station:USF.COMPS:SHP:1,2017-10-01T14:12:00Z,30.0600,-84.2910,10.0,4.11,42.7,7.44,'1111122,1111122,1111122' 
COMPS,ioos:station:USF.COMPS:SHP:1,2017-10-01T14:18:00Z,30.0600,-84.2910,10.0,4.61,47.96,9.11,'1111122,1111122,1111122' 
COMPS,ioos:station:USF.COMPS:SHP:1,2017-10-01T14:24:00Z,30.0600,-84.2910,10.0,4.88,45.81,8.82,'1111122,1111122,1111122' 
COMPS,ioos:station:USF.COMPS:SHP:1,2017-10-01T14:30:00Z,30.0600,-84.2910,10.0,4.52,46.51,8.72,'1111122,1111122,1111122' 
COMPS,ioos:station:USF.COMPS:SHP:1,2017-10-01T14:36:00Z,30.0600,-84.2910,10.0,5.18,45.4,10.97,'1111122,1111122,1111122' 
COMPS,ioos:station:USF.COMPS:SHP:1,2017-10-01T14:42:00Z,30.0600,-84.2910,10.0,3.72,47.56,6.76,'1111122,1111122,1111122' 
COMPS,ioos:station:USF.COMPS:SHP:1,2017-10-01T14:48:00Z,30.0600,-84.2910,10.0,4.39,38.11,8.42,'1111122,1111122,1111122' 
COMPS,ioos:station:USF.COMPS:SHP:1,2017-10-01T14:54:00Z,30.0600,-84.2910,10.0,4.36,46.01,11.76,'1111122,1111122,1111122' 
COMPS,ioos:station:USF.COMPS:SHP:1,2017-10-01T15:00:00Z,30.0600,-84.2910,10.0,4.54,46.32,8.72,'1111122,1111122,1111122' 
COMPS,ioos:station:USF.COMPS:SHP:1,2017-10-01T15:06:00Z,30.0600,-84.2910,10.0,4.52,44.37,8.13,'1111122,1111122,1111122' 
COMPS,ioos:station:USF.COMPS:SHP:1,2017-10-01T15:12:00Z,30.0600,-84.2910,10.0,4.24,53.25,8.42,'1111122,1111122,1111122' 
COMPS,ioos:station:USF.COMPS:SHP:1,2017-10-01T15:18:00Z,30.0600,-84.2910,10.0,3.43,42.75,8.42,'1111122,1111122,1111122' 
COMPS,ioos:station:USF.COMPS:SHP:1,2017-10-01T15:24:00Z,30.0600,-84.2910,10.0,4.14,44.5,8.72,'1111122,1111122,1111122' 
COMPS,ioos:station:USF.COMPS:SHP:1,2017-10-01T15:30:00Z,30.0600,-84.2910,10.0,4.33,43.44,8.23,'1111122,1111122,1111122' 
COMPS,ioos:station:USF.COMPS:SHP:1,2017-10-01T15:36:00Z,30.0600,-84.2910,10.0,4.02,46.03,8.13,'1111122,1111122,1111122' 
COMPS,ioos:station:USF.COMPS:SHP:1,2017-10-01T15:42:00Z,30.0600,-84.2910,10.0,4.42,50.42,9.7,'1111122,1111122,1111122' 
COMPS,ioos:station:USF.COMPS:SHP:1,2017-10-01T15:48:00Z,30.0600,-84.2910,10.0,4.0,48.94,8.23,'1111122,1111122,1111122' 
COMPS,ioos:station:USF.COMPS:SHP:1,2017-10-01T15:54:00Z,30.0600,-84.2910,10.0,4.24,40.38,8.82,'1111122,1111122,1111122' 
COMPS,ioos:station:USF.COMPS:SHP:1,2017-10-01T16:00:00Z,30.0600,-84.2910,10.0,4.58,56.83,10.19,'1111122,1111122,1111122' 
COMPS,ioos:station:USF.COMPS:SHP:1,2017-10-01T16:06:00Z,30.0600,-84.2910,10.0,3.93,48.19,7.83,'1111122,1111122,1111122' 
COMPS,ioos:station:USF.COMPS:SHP:1,2017-10-01T16:12:00Z,30.0600,-84.2910,10.0,4.12,50.44,9.5,'1111122,1111122,1111122' 
COMPS,ioos:station:USF.COMPS:SHP:1,2017-10-01T16:18:00Z,30.0600,-84.2910,10.0,3.31,53.33,6.27,'1111122,1111122,1111122' 
COMPS,ioos:station:USF.COMPS:SHP:1,2017-10-01T16:24:00Z,30.0600,-84.2910,10.0,4.37,41.63,8.33,'1111122,1111122,1111122' 
COMPS,ioos:station:USF.COMPS:SHP:1,2017-10-01T16:30:00Z,30.0600,-84.2910,10.0,4.61,44.51,9.01,'1111122,1111122,1111122' 
COMPS,ioos:station:USF.COMPS:SHP:1,2017-10-01T16:36:00Z,30.0600,-84.2910,10.0,4.23,52.81,7.74,'1111122,1111122,1111122' 
COMPS,ioos:station:USF.COMPS:SHP:1,2017-10-01T16:42:00Z,30.0600,-84.2910,10.0,3.69,54.84,8.23,'1111122,1111122,1111122' 
COMPS,ioos:station:USF.COMPS:SHP:1,2017-10-01T16:48:00Z,30.0600,-84.2910,10.0,4.65,50.96,6.76,'1111122,1111122,1111122' 
COMPS,ioos:station:USF.COMPS:SHP:1,2017-10-01T16:54:00Z,30.0600,-84.2910,10.0,4.05,42.0,8.33,'1111122,1111122,1111122' 
COMPS,ioos:station:USF.COMPS:SHP:1,2017-10-01T17:00:00Z,30.0600,-84.2910,10.0,2.5,53.28,5.87,'1111122,1111122,1111122' 
COMPS,ioos:station:USF.COMPS:SHP:1,2017-10-01T17:06:00Z,30.0600,-84.2910,10.0,3.37,49.4,6.27,'1111122,1111122,1111122' 
COMPS,ioos:station:USF.COMPS:SHP:1,2017-10-01T17:12:00Z,30.0600,-84.2910,10.0,2.61,46.46,5.68,'1111122,1111122,1111122' 
COMPS,ioos:station:USF.COMPS:SHP:1,2017-10-01T17:18:00Z,30.0600,-84.2910,10.0,3.4,52.12,6.85,'1111122,1111122,1111122' 
COMPS,ioos:station:USF.COMPS:SHP:1,2017-10-01T17:24:00Z,30.0600,-84.2910,10.0,4.28,59.71,8.72,'1111122,1111122,1111122' 
COMPS,ioos:station:USF.COMPS:SHP:1,2017-10-01T17:30:00Z,30.0600,-84.2910,10.0,2.79,66.25,5.78,'1111122,1111122,1111122' 
COMPS,ioos:station:USF.COMPS:SHP:1,2017-10-01T17:36:00Z,30.0600,-84.2910,10.0,2.13,42.86,4.11,'1111122,1111122,1111122' 
COMPS,ioos:station:USF.COMPS:SHP:1,2017-10-01T17:42:00Z,30.0600,-84.2910,10.0,2.67,29.78,7.25,'1111122,1111122,1111122' 
COMPS,ioos:station:USF.COMPS:SHP:1,2017-10-01T17:48:00Z,30.0600,-84.2910,10.0,2.6,26.85,5.68,'1111122,1111122,1111122' 
COMPS,ioos:station:USF.COMPS:SHP:1,2017-10-01T17:54:00Z,30.0600,-84.2910,10.0,2.88,28.61,5.78,'1111122,1111122,1111122' 
COMPS,ioos:station:USF.COMPS:SHP:1,2017-10-01T18:00:00Z,30.0600,-84.2910,10.0,1.9,39.48,3.82,'1111122,1111122,1111122' 
COMPS,ioos:station:USF.COMPS:SHP:1,2017-10-01T18:06:00Z,30.0600,-84.2910,10.0,2.55,45.23,4.21,'1111122,1111122,1111122' 
COMPS,ioos:station:USF.COMPS:SHP:1,2017-10-01T18:12:00Z,30.0600,-84.2910,10.0,2.24,50.55,8.13,'1111122,1111122,1111122' 
COMPS,ioos:station:USF.COMPS:SHP:1,2017-10-01T18:18:00Z,30.0600,-84.2910,10.0,3.39,65.3,7.74,'1111122,1111122,1111122' 
COMPS,ioos:station:USF.COMPS:SHP:1,2017-10-01T18:24:00Z,30.0600,-84.2910,10.0,3.0,60.43,7.35,'1111122,1111122,1111122' 
COMPS,ioos:station:USF.COMPS:SHP:1,2017-10-01T18:30:00Z,30.0600,-84.2910,10.0,3.4,55.13,6.56,'1111122,1111122,1111122' 
COMPS,ioos:station:USF.COMPS:SHP:1,2017-10-01T18:36:00Z,30.0600,-84.2910,10.0,3.53,70.24,8.91,'1111122,1111122,1111122' 
COMPS,ioos:station:USF.COMPS:SHP:1,2017-10-01T18:42:00Z,30.0600,-84.2910,10.0,3.83,66.94,8.03,'1111122,1111122,1111122' 
COMPS,ioos:station:USF.COMPS:SHP:1,2017-10-01T18:48:00Z,30.0600,-84.2910,10.0,4.61,72.55,7.74,'1111122,1111122,1111122' 
COMPS,ioos:station:USF.COMPS:SHP:1,2017-10-01T18:54:00Z,30.0600,-84.2910,10.0,3.84,65.34,11.36,'1111122,1111122,1111122' 
COMPS,ioos:station:USF.COMPS:SHP:1,2017-10-01T19:00:00Z,30.0600,-84.2910,10.0,3.41,71.15,7.25,'1111122,1111122,1111122' 
COMPS,ioos:station:USF.COMPS:SHP:1,2017-10-01T19:06:00Z,30.0600,-84.2910,10.0,3.81,71.48,9.8,'1111122,1111122,1111122' 
COMPS,ioos:station:USF.COMPS:SHP:1,2017-10-01T19:12:00Z,30.0600,-84.2910,10.0,3.43,76.55,7.64,'1111122,1111122,1111122' 
COMPS,ioos:station:USF.COMPS:SHP:1,2017-10-01T19:18:00Z,30.0600,-84.2910,10.0,4.05,74.23,8.13,'1111122,1111122,1111122' 
COMPS,ioos:station:USF.COMPS:SHP:1,2017-10-01T19:24:00Z,30.0600,-84.2910,10.0,3.45,71.83,8.62,'1111122,1111122,1111122' 
COMPS,ioos:station:USF.COMPS:SHP:1,2017-10-01T19:30:00Z,30.0600,-84.2910,10.0,4.46,68.86,9.4,'1111122,1111122,1111122' 
COMPS,ioos:station:USF.COMPS:SHP:1,2017-10-01T19:36:00Z,30.0600,-84.2910,10.0,3.34,73.4,7.44,'1111122,1111122,1111122' 